TimeCDT,TemperatureF,Dew PointF,Humidity,Sea Level PressureIn,VisibilityMPH,Wind Direction,Wind SpeedMPH,Gust SpeedMPH,PrecipitationIn,Events,Conditions,WindDirDegrees,DateUTC
12:56 AM,75.0,66.9,76,29.95,10.0,WNW,6.9,-,N/A,,Clear,290,2013-08-30 05:56:00
1:56 AM,73.0,66.9,81,29.95,10.0,WNW,4.6,-,N/A,,Clear,290,2013-08-30 06:56:00
2:56 AM,73.0,66.9,81,29.94,10.0,WNW,4.6,-,N/A,,Clear,290,2013-08-30 07:56:00
3:56 AM,73.0,66.9,81,29.94,10.0,West,4.6,-,N/A,,Clear,280,2013-08-30 08:56:00
4:56 AM,73.0,66.9,81,29.94,10.0,WNW,5.8,-,0.00,,Clear,300,2013-08-30 09:56:00
5:56 AM,72.0,66.9,84,29.95,10.0,NW,4.6,-,N/A,,Clear,310,2013-08-30 10:56:00
6:56 AM,72.0,66.9,84,29.97,8.0,WNW,4.6,-,N/A,,Scattered Clouds,300,2013-08-30 11:56:00
7:56 AM,75.9,68.0,76,29.98,9.0,NW,5.8,-,N/A,,Scattered Clouds,320,2013-08-30 12:56:00
8:56 AM,78.1,68.0,71,29.99,9.0,NW,8.1,-,N/A,,Mostly Cloudy,320,2013-08-30 13:56:00
9:56 AM,82.9,70.0,65,29.99,10.0,NW,9.2,-,N/A,,Mostly Cloudy,310,2013-08-30 14:56:00
10:56 AM,87.1,71.1,59,29.99,6.0,NW,6.9,-,N/A,,Haze,310,2013-08-30 15:56:00
11:56 AM,89.1,71.1,55,29.96,6.0,NW,8.1,-,N/A,,Haze,310,2013-08-30 16:56:00
12:56 PM,91.0,71.1,52,29.95,10.0,Variable,5.8,-,N/A,,Scattered Clouds,0,2013-08-30 17:56:00
1:56 PM,91.9,71.1,50,29.93,10.0,WNW,8.1,-,N/A,,Scattered Clouds,300,2013-08-30 18:56:00
2:56 PM,91.0,71.1,52,29.90,9.0,WNW,8.1,-,N/A,,Scattered Clouds,300,2013-08-30 19:56:00
3:56 PM,93.0,70.0,47,29.88,10.0,NNW,5.8,-,N/A,,Scattered Clouds,340,2013-08-30 20:56:00
4:56 PM,91.9,70.0,48,29.88,9.0,NW,4.6,-,N/A,,Scattered Clouds,320,2013-08-30 21:56:00
5:56 PM,90.0,72.0,55,29.87,8.0,NW,3.5,-,N/A,,Scattered Clouds,310,2013-08-30 22:56:00
6:56 PM,84.0,73.9,72,29.86,8.0,WNW,4.6,-,N/A,,Scattered Clouds,300,2013-08-30 23:56:00
7:56 PM,81.0,73.0,77,29.88,8.0,Calm,Calm,-,N/A,,Scattered Clouds,0,2013-08-31 00:56:00
8:56 PM,80.1,73.0,79,29.88,8.0,West,8.1,-,N/A,,Mostly Cloudy,260,2013-08-31 01:56:00
9:56 PM,79.0,72.0,79,29.89,8.0,Calm,Calm,-,N/A,,Mostly Cloudy,0,2013-08-31 02:56:00
10:56 PM,79.0,72.0,79,29.89,8.0,West,4.6,-,N/A,,Scattered Clouds,280,2013-08-31 03:56:00
11:56 PM,78.1,71.1,79,29.87,8.0,West,5.8,-,N/A,,Clear,270,2013-08-31 04:56:00